| time (UTC) | temp F | wind direction | speed MPH | gust MPH | rain 1hr in | rain 24hr in | rain mn in | humidity % | barometer mb |
| 20260906051508 | 72 | 47 | 0.0 | 0.0 | 0.00 | 0.56 | 0.00 | 98 | 1011.3 |
| 20260906050006 | 72 | 329 | 0.0 | 0.0 | 0.00 | 0.56 | 0.00 | 98 | 1011.1 |
| 20260906044504 | 72 | 349 | 0.0 | 0.0 | 0.00 | 0.56 | 0.00 | 98 | 1010.7 |
| 20260906043003 | 72 | 335 | 0.0 | 0.0 | 0.00 | 0.56 | 0.00 | 98 | 1010.5 |
| 20260906041502 | 72 | 108 | 0.0 | 0.0 | 0.00 | 0.56 | 0.00 | 98 | 1010.5 |
| 20260906040100 | 72 | 306 | 0.0 | 0.0 | 0.00 | 0.56 | 0.00 | 98 | 1010.5 |
| 20260906034627 | 72 | 356 | 0.0 | 0.0 | 0.00 | 0.56 | 0.56 | 97 | 1010.4 |
| 20260906033059 | 72 | 356 | 0.0 | 0.0 | 0.00 | 0.56 | 0.56 | 97 | 1010.3 |
| 20260906031600 | 72 | 28 | 0.0 | 0.0 | 0.00 | 0.56 | 0.56 | 98 | 1010.4 |
| 20260906030058 | 72 | 29 | 0.0 | 0.0 | 0.00 | 0.56 | 0.56 | 98 | 1010.4 |
| 20260906024557 | 73 | 37 | 0.0 | 0.0 | 0.00 | 0.56 | 0.56 | 97 | 1010.2 |
| 20260906023057 | 73 | 64 | 0.0 | 0.0 | 0.00 | 0.56 | 0.56 | 97 | 1010.4 |
| 20260906021556 | 73 | 39 | 0.0 | 0.0 | 0.00 | 0.56 | 0.56 | 97 | 1010.4 |
| 20260906020100 | 74 | 37 | 0.0 | 0.0 | 0.02 | 0.56 | 0.56 | 97 | 1010.5 |
| 20260906014555 | 74 | 325 | 0.0 | 0.0 | 0.03 | 0.56 | 0.56 | 97 | 1010.5 |
| 20260906013104 | 75 | 231 | 0.0 | 0.0 | 0.03 | 0.56 | 0.56 | 97 | 1010.4 |
| 20260906011554 | 75 | 231 | 0.0 | 0.0 | 0.03 | 0.56 | 0.56 | 97 | 1010.4 |
| 20260906010055 | 75 | 231 | 0.0 | 0.0 | 0.44 | 0.54 | 0.54 | 97 | 1010.0 |
| 20260906004554 | 74 | 242 | 0.0 | 0.0 | 0.46 | 0.53 | 0.53 | 96 | 1010.0 |
| 20260906003051 | 74 | 259 | 0.0 | 0.0 | 0.46 | 0.53 | 0.53 | 94 | 1009.7 |
| 20260906001550 | 74 | 219 | 0.0 | 10.0 | 0.46 | 0.53 | 0.53 | 92 | 1009.3 |
| 20260906000100 | 78 | 15 | 0.0 | 9.0 | 0.02 | 0.09 | 0.09 | 83 | 1009.9 |
| 20260905234558 | 82 | 90 | 0.0 | 6.0 | 0.00 | 0.07 | 0.07 | 75 | 1009.2 |
| 20260905233048 | 82 | 154 | 1.0 | 4.0 | 0.00 | 0.07 | 0.07 | 75 | 1009.4 |
| 20260905231547 | 82 | 79 | 2.0 | 7.0 | 0.00 | 0.07 | 0.07 | 75 | 1009.6 |
| 20260905230047 | 84 | 101 | 1.0 | 10.0 | 0.00 | 0.07 | 0.07 | 74 | 1009.3 |
| 20260905224546 | 85 | 143 | 0.0 | 8.0 | 0.00 | 0.09 | 0.07 | 74 | 1009.2 |
| 20260905223050 | 88 | 82 | 1.0 | 5.0 | 0.00 | 0.09 | 0.07 | 63 | 1009.2 |
| 20260905221548 | 89 | 3 | 0.0 | 0.0 | 0.00 | 0.09 | 0.07 | 63 | 1009.1 |
| 20260905220044 | 89 | 354 | 0.0 | 0.0 | 0.00 | 0.09 | 0.07 | 63 | 1008.9 |
| 20260905214543 | 89 | 53 | 0.0 | 2.0 | 0.00 | 0.09 | 0.07 | 63 | 1008.7 |
| 20260905213041 | 90 | 88 | 0.0 | 2.0 | 0.00 | 0.09 | 0.07 | 61 | 1008.8 |
| 20260905211541 | 89 | 313 | 0.0 | 0.0 | 0.00 | 0.09 | 0.07 | 62 | 1008.9 |
| 20260905210053 | 88 | 23 | 0.0 | 7.0 | 0.00 | 0.09 | 0.07 | 64 | 1009.0 |
| 20260905204538 | 92 | 287 | 0.0 | 3.0 | 0.00 | 0.09 | 0.07 | 54 | 1009.1 |
| 20260905203051 | 94 | 239 | 0.0 | 4.0 | 0.00 | 0.09 | 0.07 | 52 | 1009.1 |
| 20260905201536 | 94 | 290 | 0.0 | 5.0 | 0.00 | 0.09 | 0.07 | 52 | 1009.3 |
| 20260905200033 | 95 | 241 | 0.0 | 0.0 | 0.00 | 0.09 | 0.07 | 52 | 1009.4 |
| 20260905194531 | 94 | 22 | 0.0 | 5.0 | 0.00 | 0.09 | 0.07 | 53 | 1009.6 |
| 20260905193034 | 94 | 278 | 1.0 | 7.0 | 0.00 | 0.09 | 0.07 | 51 | 1009.8 |
| 20260905191535 | 95 | 273 | 0.0 | 4.0 | 0.00 | 0.09 | 0.07 | 50 | 1010.0 |
| 20260905190024 | 94 | 281 | 0.0 | 5.0 | 0.00 | 0.09 | 0.07 | 50 | 1010.3 |
| 20260905184523 | 93 | 214 | 0.0 | 8.0 | 0.00 | 0.09 | 0.07 | 49 | 1010.5 |
| 20260905183022 | 94 | 271 | 0.0 | 3.0 | 0.00 | 0.09 | 0.07 | 48 | 1010.7 |
| 20260905181522 | 93 | 222 | 0.0 | 8.0 | 0.00 | 0.09 | 0.07 | 49 | 1010.7 |
| 20260905180019 | 93 | 267 | 0.0 | 5.0 | 0.00 | 0.09 | 0.07 | 48 | 1010.6 |
| 20260905174521 | 93 | 227 | 0.0 | 6.0 | 0.00 | 0.09 | 0.07 | 47 | 1010.6 |
| 20260905173013 | 92 | 241 | 0.0 | 7.0 | 0.00 | 0.09 | 0.07 | 49 | 1010.5 |
| 20260905171521 | 92 | 143 | 0.0 | 3.0 | 0.00 | 0.09 | 0.07 | 49 | 1010.9 |
| 20260905170007 | 91 | 290 | 0.0 | 4.0 | 0.00 | 0.09 | 0.07 | 51 | 1011.2 |
| 20260905164504 | 90 | 234 | 0.0 | 0.0 | 0.00 | 0.09 | 0.07 | 52 | 1011.4 |
| 20260905163102 | 90 | 211 | 0.0 | 5.0 | 0.00 | 0.09 | 0.07 | 54 | 1011.5 |
| 20260905161504 | 89 | 237 | 0.0 | 4.0 | 0.00 | 0.09 | 0.07 | 54 | 1011.5 |
| 20260905160109 | 87 | 248 | 0.0 | 0.0 | 0.00 | 0.09 | 0.07 | 56 | 1011.5 |
| 20260905154625 | 86 | 127 | 0.0 | 0.0 | 0.00 | 0.09 | 0.07 | 59 | 1011.6 |
| 20260905153051 | 83 | 161 | 1.0 | 5.0 | 0.00 | 0.09 | 0.07 | 63 | 1011.4 |
| 20260905151549 | 83 | 216 | 0.0 | 0.0 | 0.00 | 0.09 | 0.07 | 63 | 1011.8 |
| 20260905150051 | 82 | 260 | 0.0 | 5.0 | 0.00 | 0.09 | 0.07 | 65 | 1011.6 |
| 20260905144543 | 79 | 145 | 0.0 | 6.0 | 0.00 | 0.09 | 0.07 | 70 | 1011.6 |
| 20260905143043 | 78 | 158 | 2.0 | 6.0 | 0.00 | 0.09 | 0.07 | 73 | 1011.5 |
| 20260905141541 | 76 | 205 | 1.0 | 8.0 | 0.00 | 0.09 | 0.07 | 77 | 1011.8 |
| 20260905140038 | 76 | 164 | 0.0 | 6.0 | 0.00 | 0.09 | 0.07 | 77 | 1011.9 |
| 20260905134537 | 75 | 94 | 1.0 | 6.0 | 0.00 | 0.09 | 0.07 | 79 | 1012.8 |
| 20260905133036 | 72 | 147 | 0.0 | 4.0 | 0.00 | 0.09 | 0.07 | 88 | 1013.5 |
| 20260905131539 | 70 | 237 | 0.0 | 1.0 | 0.00 | 0.09 | 0.07 | 90 | 1013.6 |
| 20260905130036 | 70 | 149 | 0.0 | 5.0 | 0.00 | 0.09 | 0.07 | 91 | 1013.9 |
| 20260905124535 | 69 | 89 | 0.0 | 0.0 | 0.00 | 0.09 | 0.07 | 91 | 1013.4 |
| 20260905123039 | 69 | 91 | 0.0 | 0.0 | 0.00 | 0.09 | 0.07 | 92 | 1013.3 |
| 20260905121538 | 69 | 107 | 0.0 | 0.0 | 0.00 | 0.09 | 0.07 | 92 | 1013.0 |
| 20260905120037 | 68 | 107 | 0.0 | 0.0 | 0.03 | 0.09 | 0.07 | 92 | 1013.0 |
| 20260905114531 | 68 | 77 | 0.0 | 8.0 | 0.07 | 0.09 | 0.07 | 92 | 1013.0 |
| 20260905113030 | 68 | 123 | 0.0 | 0.0 | 0.07 | 0.09 | 0.07 | 92 | 1013.1 |
| 20260905111528 | 69 | 143 | 0.0 | 6.0 | 0.07 | 0.09 | 0.07 | 91 | 1013.2 |
| 20260905110024 | 71 | 62 | 3.0 | 12.0 | 0.04 | 0.06 | 0.04 | 85 | 1013.6 |
| 20260905104521 | 73 | 275 | 5.0 | 21.0 | 0.00 | 0.02 | 0.00 | 79 | 1013.5 |
| 20260905103017 | 75 | 280 | 6.0 | 22.0 | 0.00 | 0.02 | 0.00 | 80 | 1012.8 |
| 20260905101513 | 77 | 201 | 0.0 | 0.0 | 0.00 | 0.02 | 0.00 | 85 | 1010.9 |
| 20260905100014 | 76 | 202 | 0.0 | 0.0 | 0.00 | 0.02 | 0.00 | 87 | 1011.0 |
| 20260905094511 | 75 | 201 | 0.0 | 0.0 | 0.00 | 0.02 | 0.00 | 89 | 1010.9 |
| 20260905093009 | 75 | 202 | 0.0 | 0.0 | 0.00 | 0.02 | 0.00 | 90 | 1010.7 |
| 20260905091509 | 75 | 202 | 0.0 | 0.0 | 0.00 | 0.02 | 0.00 | 90 | 1010.7 |
| 20260905090011 | 75 | 201 | 0.0 | 0.0 | 0.00 | 0.02 | 0.00 | 90 | 1010.6 |
| 20260905084507 | 75 | 201 | 0.0 | 0.0 | 0.00 | 0.02 | 0.00 | 90 | 1010.8 |
| 20260905083006 | 75 | 201 | 0.0 | 0.0 | 0.00 | 0.02 | 0.00 | 87 | 1010.9 |
| 20260905081504 | 75 | 202 | 0.0 | 0.0 | 0.00 | 0.02 | 0.00 | 86 | 1010.7 |
| 20260905080003 | 75 | 201 | 0.0 | 0.0 | 0.00 | 0.02 | 0.00 | 85 | 1010.3 |
| 20260905074501 | 76 | 202 | 0.0 | 0.0 | 0.00 | 0.02 | 0.00 | 84 | 1010.2 |
| 20260905073110 | 76 | 201 | 0.0 | 0.0 | 0.00 | 0.02 | 0.00 | 84 | 1010.3 |
| 20260905071601 | 76 | 202 | 0.0 | 0.0 | 0.00 | 0.02 | 0.00 | 83 | 1010.1 |
| 20260905070058 | 76 | 201 | 0.0 | 0.0 | 0.00 | 0.02 | 0.00 | 82 | 1010.2 |
| 20260905064554 | 77 | 201 | 0.0 | 0.0 | 0.00 | 0.02 | 0.00 | 81 | 1010.4 |
| 20260905063051 | 77 | 201 | 0.0 | 0.0 | 0.00 | 0.02 | 0.00 | 81 | 1010.7 |
| 20260905061601 | 77 | 202 | 0.0 | 0.0 | 0.00 | 0.02 | 0.00 | 82 | 1010.9 |
| 20260905054556 | 77 | 215 | 0.0 | 0.0 | 0.00 | 0.02 | 0.00 | 84 | 1011.2 |
| 20260905053044 | 77 | 228 | 0.0 | 0.0 | 0.00 | 0.02 | 0.00 | 85 | 1011.3 |